User: anonymous   Login
Location: Eaton Estates
(41.3089°N, 82.0057°W)
Time: 06:19:51
(UTC+00:00)
Language:

DOVE 4 - Orbit

View from above orbital plane
View from above orbital plane
View from above satellite
View from above satellite

Ground track
Ground track

The orbit data is extracted from the following two-line orbital elements,

1 39430U 13066Q   24105.75895792  .00003533  00000-0  59391-3 0  9993
2 39430  97.7413 343.9721 0142786  94.3600 267.3933 14.63637011553762
Epoch (UTC): 14 April 2024 18:12:53
Eccentricity: 0.0142786
inclination: 97.7413°
perigee height: 580 km
apogee height: 782 km
right ascension of ascending node: 343.9721°
argument of perigee: 94.3600°
revolutions per day: 14.63637011
mean anomaly at epoch: 267.3933°
orbit number at epoch: 55376

The dashed part of the orbit path shows where the satellite is in the earth's shadow,  

DLR